Regional Weather Roundup
Issued by NWS Bismarck, ND

Home | Current Version | Previous Version | Text Only | Print | Product List | Glossary On
Versions: 1 2 3 4 5 6 7 8 9 10 11 12 13 14 15 16 17 18 19 20 21 22 23 24 25 26 27 28 29 30 31 32 33 34 35 36 37 38 39 40 41 42 43 44 45 46 47 48 49 50
000
ASUS43 KBIS 291110
RWRBIS

NWR BROADCAST TEXT
NATIONAL WEATHER SERVICE BISMARCK ND
600 AM CDT WED JUL 29 2015

NOTE: "FAIR" INDICATES FEW OR NO CLOUDS BELOW 12,000 FEET WITH NO
SIGNIFICANT WEATHER AND/OR OBSTRUCTIONS TO VISIBILITY.


CITY           SKY/WX    TMP DP  RH WIND       PRES   REMARKS
WILLISTON      MOCLDY    58  49  72 W17       29.96R
MINOT          PTCLDY    61  50  67 W20G28    29.83R
MINOT AFB      PTCLDY    61  56  83 W15       29.81R
BISMARCK       PTCLDY    61  47  59 W16       29.95R
DICKINSON      PTCLDY    53  44  71 W13       30.02R
GARRISON         N/A     58  52  80 W14       29.90R
HETTINGER ARPT CLEAR     51  41  68 W10       30.10R
JAMESTOWN      CLEAR     62  49  62 W22G31    29.84R
BEACH          PTSUNNY   54  43  66 W13       30.08R
CROSBY         FAIR      57  55  94 W15       29.90R
HARVEY         FAIR      59  54  82 W17G24    29.81R
HAZEN          FAIR      57  48  72 W14       29.94R
LINTON         FAIR      57  48  72 W14G24    29.98R
MANDAN         FAIR      57  46  67 W18G25    29.96R
OAKES            N/A     59  50  72 SW18G24   29.90R
STANLEY        FAIR      57  55  94 W14       29.91R
$$

CITY           SKY/WX    TMP DP  RH WIND       PRES   REMARKS
GRAND FORKS    CLOUDY    65  54  67 W24G37    29.61R
GRAND FORKS AF CLOUDY    65  54  67 W26G33    29.63R
DEVILS LAKE    CLOUDY    63  48  59 W29G40    29.70R
FARGO          CLOUDY    65  51  60 SW23G32   29.75R
CAVALIER       PTSUNNY   63  55  77 W20G33    29.55R
GRAFTON        CLOUDY    64  57  77 W25G33    29.59R
GWINNER        FAIR      61  48  63 SW16G25   29.88R
LANGDON        CLOUDY    59  55  88 W24G37    29.61R
ROLLA          CLOUDY    59  55  88 W23G36    29.68R
WALHALLA       FAIR      63  59  88 MISG      29.55R
$$

CITY           SKY/WX    TMP DP  RH WIND       PRES   REMARKS
ABERDEEN       CLEAR     57  49  74 SW13      29.98R
MOBRIDGE       CLEAR     63  45  51 W10G20    30.01R
BUFFALO          N/A     51  39  63 W9        30.08R
RAPID CITY     CLEAR     52  40  63 W5        30.22S
GLASGOW        PTCLDY    54  47  77 W6        30.06R
SIDNEY         MOCLDY    61  46  59 W13       30.01R
WOLF POINT     MOCLDY    55  49  80 SW7       30.04R
GLENDIVE       PTCLDY    57  45  62 W14       30.08R
MILES CITY     CLEAR     51  42  71 NW3       30.13R
BAKER          PTCLDY    50  39  66 W9        30.13R
$$

CITY           SKY/WX    TMP DP  RH WIND       PRES   REMARKS
BILLINGS       PTCLDY    56  36  47 SW13      30.24R
GREAT FALLS    CLEAR     51  40  65 SW10      30.20S
REGINA         MOCLDY    55  52  88 NW13      29.87R
$$




USA.gov is the U.S. government's official web portal to all federal, state and local government web resources and services.